Change the Weather History Date:

Monday, February 25, 2013

  Actual Average (KDEQ) Record (KDEQ)
Temperature  
Mean Temperature 46 °F 48 °F  
Max Temperature 51 °F 61 °F 81 °F (1977)
Min Temperature 41 °F 35 °F 14 °F (1967)
Degree Days  
Heating Degree Days 19 17  
Month to date heating degree days 506  
Since 1 July heating degree days 2442  
Cooling Degree Days 0 0  
Month to date cooling degree days 0  
Year to date cooling degree days 1  
Moisture  
Dew Point 40 °F    
Average Humidity 78    
Maximum Humidity 100    
Minimum Humidity 58    
Precipitation  
Precipitation 0.34 in 0.10 in 2.53 in (1993)
Month to date precipitation 3.39  
Year to date precipitation 6.71  
Snow  
Snow 0.00 in - - ()
Month to date snowfall  
Since 1 July snowfall  
Snow Depth -    
Sea Level Pressure  
Sea Level Pressure 29.55 in    
Wind  
Wind Speed 11 mph (ENE)    
Max Wind Speed 20 mph    
Max Gust Speed 30 mph    
Visibility 9 miles    
Events      
T = Trace of Precipitation, MM = Missing Value Source: NWS Daily Summary

Daily Weather History Graph

Daily Weather History Graph

Search for Another Location

Airport or City:

Trip Planner

Search our weather history database for the weather conditions in past years. The results will help you decide how hot, cold, wet, or windy it might be!

Date:

Astronomy

Feb. 25, 2013 Rise Set
Actual Time 6:52 AM CST 6:12 PM CST
Civil Twilight 6:27 AM CST 6:37 PM CST
Nautical Twilight 5:58 AM CST 7:06 PM CST
Astronomical Twilight 5:29 AM CST 7:35 PM CST
Moon 6:23 PM CST (2/25) 6:25 AM CST (2/25)
Length of Visible Light 12h 10m
Length of Day
11h 20m
Full, 100% of the Moon is Illuminated
Feb 25
Full
Feb 25
Full
Mar 4
Last Quarter
Mar 11
New
Mar 19
First Quarter

Hourly Weather History & Observations

Time (CST) Temp. Windchill Dew Point Humidity Pressure Visibility Wind Dir Wind Speed Gust Speed Precip Events Conditions
12:15 AM 46.4 °F 42.4 °F 33.8 °F 62% 29.78 in 10.0 mi NE 8.1 mph - N/A   Mostly Cloudy
12:35 AM 46.4 °F 40.4 °F 33.8 °F 62% 29.76 in 10.0 mi ENE 13.8 mph 17.3 mph N/A   Scattered Clouds
12:55 AM 46.4 °F 41.1 °F 33.8 °F 62% 29.76 in 10.0 mi ENE 11.5 mph - N/A   Scattered Clouds
1:15 AM 44.6 °F 38.4 °F 33.8 °F 66% 29.73 in 10.0 mi East 12.7 mph - N/A   Scattered Clouds
1:35 AM 44.6 °F 38.4 °F 33.8 °F 66% 29.72 in 10.0 mi ENE 12.7 mph 18.4 mph N/A   Clear
1:55 AM 44.6 °F 38.4 °F 33.8 °F 66% 29.73 in 10.0 mi ENE 12.7 mph - N/A   Scattered Clouds
2:15 AM 44.6 °F 37.8 °F 33.8 °F 66% 29.70 in 10.0 mi East 15.0 mph 20.7 mph N/A   Scattered Clouds
2:35 AM 44.6 °F 38.1 °F 33.8 °F 66% 29.69 in 10.0 mi ENE 13.8 mph - N/A   Mostly Cloudy
2:55 AM 46.4 °F 40.4 °F 33.8 °F 62% 29.69 in 10.0 mi ENE 13.8 mph - N/A   Overcast
3:15 AM 46.4 °F 40.4 °F 33.8 °F 62% 29.68 in 10.0 mi ENE 13.8 mph 20.7 mph N/A   Mostly Cloudy
3:35 AM 46.4 °F 40.1 °F 33.8 °F 62% 29.68 in 10.0 mi ENE 15.0 mph 18.4 mph N/A   Mostly Cloudy
3:55 AM 46.4 °F 40.4 °F 33.8 °F 62% 29.68 in 10.0 mi ENE 13.8 mph 17.3 mph N/A   Overcast
4:15 AM 46.4 °F 40.7 °F 33.8 °F 62% 29.69 in 10.0 mi East 12.7 mph - N/A   Overcast
4:35 AM 48.2 °F - 33.8 °F 58% 29.69 in 10.0 mi ENE 10.4 mph - N/A   Overcast
4:55 AM 48.2 °F - 35.6 °F 62% 29.69 in 10.0 mi NE 11.5 mph - N/A   Mostly Cloudy
5:15 AM 48.2 °F - 35.6 °F 62% 29.71 in 10.0 mi ENE 10.4 mph - N/A   Mostly Cloudy
5:35 AM 46.4 °F 41.1 °F 37.4 °F 71% 29.70 in 10.0 mi East 11.5 mph 16.1 mph N/A   Mostly Cloudy
5:55 AM 46.4 °F 40.7 °F 37.4 °F 71% 29.68 in 10.0 mi East 12.7 mph - 0.05 in   Mostly Cloudy
6:15 AM 46.4 °F 40.4 °F 37.4 °F 71% 29.67 in 10.0 mi East 13.8 mph - N/A   Mostly Cloudy
6:35 AM 46.4 °F 39.5 °F 37.4 °F 71% 29.65 in 10.0 mi East 17.3 mph 23.0 mph N/A   Overcast
6:55 AM 46.4 °F 40.7 °F 37.4 °F 71% 29.66 in 10.0 mi East 12.7 mph - N/A   Overcast
7:15 AM 46.4 °F 39.8 °F 37.4 °F 71% 29.63 in 10.0 mi East 16.1 mph 20.7 mph N/A   Mostly Cloudy
7:35 AM 46.4 °F 39.8 °F 37.4 °F 71% 29.62 in 10.0 mi East 16.1 mph 21.9 mph N/A   Overcast
7:55 AM 46.4 °F 39.2 °F 37.4 °F 71% 29.62 in 10.0 mi East 18.4 mph 23.0 mph N/A   Overcast
8:15 AM 46.4 °F 39.8 °F 37.4 °F 71% 29.62 in 10.0 mi East 16.1 mph 20.7 mph N/A   Overcast
8:35 AM 48.2 °F - 37.4 °F 66% 29.62 in 10.0 mi East 17.3 mph 24.2 mph N/A   Overcast
8:55 AM 48.2 °F - 39.2 °F 71% 29.60 in 10.0 mi East 19.6 mph 27.6 mph N/A   Overcast
9:15 AM 50.0 °F - 41.0 °F 71% 29.59 in 10.0 mi East 17.3 mph 21.9 mph N/A   Overcast
9:35 AM 50.0 °F - 41.0 °F 71% 29.58 in 10.0 mi East 16.1 mph 26.5 mph N/A   Overcast
9:55 AM 50.0 °F - 41.0 °F 71% 29.57 in 10.0 mi East 19.6 mph 26.5 mph N/A   Overcast
10:15 AM 50.0 °F - 41.0 °F 71% 29.54 in 10.0 mi ESE 19.6 mph 28.8 mph N/A   Overcast
10:35 AM 48.2 °F - 41.0 °F 76% 29.52 in 10.0 mi East 19.6 mph 29.9 mph N/A   Overcast
10:55 AM 48.2 °F - 41.0 °F 76% 29.51 in 10.0 mi East 18.4 mph 26.5 mph N/A   Overcast
11:15 AM 48.2 °F - 42.8 °F 82% 29.55 in 10.0 mi WNW 5.8 mph 24.2 mph N/A   Overcast
11:35 AM 46.4 °F 42.4 °F 42.8 °F 87% 29.53 in 1.0 mi ESE 8.1 mph - 0.14 in   Overcast
11:55 AM 46.4 °F 42.9 °F 44.6 °F 93% 29.53 in 5.0 mi ESE 6.9 mph - 0.18 in   Overcast
12:15 PM 46.4 °F 43.5 °F 44.6 °F 93% 29.52 in 3.0 mi East 5.8 mph - N/A   Overcast
12:35 PM 46.4 °F 42.9 °F 44.6 °F 93% 29.51 in 4.0 mi East 6.9 mph - 0.01 in   Overcast
12:55 PM 46.4 °F 44.3 °F 44.6 °F 93% 29.49 in 1.8 mi East 4.6 mph - 0.01 in   Overcast
1:15 PM 46.4 °F 43.5 °F 44.6 °F 93% 29.48 in 2.0 mi East 5.8 mph - 0.01 in   Overcast
1:35 PM 46.4 °F 43.5 °F 44.6 °F 93% 29.47 in 2.5 mi East 5.8 mph - 0.01 in   Overcast
1:55 PM 46.4 °F 43.5 °F 44.6 °F 93% 29.46 in 5.0 mi East 5.8 mph - 0.01 in   Overcast
2:15 PM 46.4 °F 45.2 °F 46.4 °F 100% 29.44 in 5.0 mi East 3.5 mph - N/A   Overcast
2:35 PM 48.2 °F - 46.4 °F 93% 29.41 in 7.0 mi East 8.1 mph - N/A   Overcast
2:55 PM 50.0 °F - 48.2 °F 94% 29.41 in 7.0 mi ENE 9.2 mph - N/A   Overcast
3:15 PM 50.0 °F - 46.4 °F 87% 29.41 in 7.0 mi NE 5.8 mph - N/A   Overcast
3:35 PM 50.0 °F - 46.4 °F 87% 29.43 in 7.0 mi Calm Calm - N/A   Overcast
3:55 PM 50.0 °F - 46.4 °F 87% 29.44 in 10.0 mi WSW 6.9 mph - N/A   Overcast
4:15 PM 50.0 °F - 48.2 °F 94% 29.44 in 10.0 mi West 5.8 mph - N/A   Mostly Cloudy
4:35 PM 51.8 °F - 48.2 °F 88% 29.44 in 10.0 mi West 15.0 mph 21.9 mph N/A   Scattered Clouds
4:55 PM 51.8 °F - 44.6 °F 76% 29.44 in 10.0 mi West 12.7 mph 19.6 mph N/A   Scattered Clouds
5:15 PM 51.8 °F - 42.8 °F 71% 29.44 in 10.0 mi WNW 8.1 mph - N/A   Clear
5:35 PM 51.8 °F - 42.8 °F 71% 29.44 in 10.0 mi WNW 6.9 mph - N/A   Clear
5:55 PM 50.0 °F - 41.0 °F 71% 29.44 in 10.0 mi WNW 4.6 mph - N/A   Clear
6:15 PM 48.2 °F - 41.0 °F 76% 29.44 in 10.0 mi NW 4.6 mph - N/A   Clear
6:35 PM 46.4 °F 42.9 °F 41.0 °F 81% 29.45 in 10.0 mi NW 6.9 mph - N/A   Clear
6:55 PM 46.4 °F 41.9 °F 41.0 °F 81% 29.46 in 10.0 mi WNW 9.2 mph - 0.01 in   Scattered Clouds
7:15 PM 46.4 °F - 42.8 °F 87% 29.46 in 4.0 mi Calm Calm - 0.02 in   Overcast
7:35 PM 44.6 °F - 42.8 °F 93% 29.45 in 10.0 mi Calm Calm - 0.02 in   Scattered Clouds
7:55 PM 44.6 °F 43.1 °F 42.8 °F 93% 29.45 in 10.0 mi NW 3.5 mph - 0.02 in   Scattered Clouds
8:15 PM 44.6 °F 40.7 °F 42.8 °F 93% 29.45 in 10.0 mi SW 6.9 mph - N/A   Mostly Cloudy
8:35 PM 44.6 °F 39.2 °F 42.8 °F 93% 29.46 in 2.5 mi West 10.4 mph - 0.04 in   Overcast
8:55 PM 44.6 °F 40.7 °F 41.0 °F 87% 29.45 in 7.0 mi WNW 6.9 mph - 0.06 in   Overcast
9:15 PM 44.6 °F 42.2 °F 41.0 °F 87% 29.45 in 10.0 mi WNW 4.6 mph - N/A   Overcast
9:35 PM 44.6 °F - 41.0 °F 87% 29.46 in 10.0 mi Calm Calm - N/A   Mostly Cloudy
9:55 PM 44.6 °F 42.2 °F 41.0 °F 87% 29.47 in 10.0 mi WSW 4.6 mph - N/A   Overcast
10:15 PM 44.6 °F 40.7 °F 41.0 °F 87% 29.48 in 10.0 mi West 6.9 mph - N/A   Overcast
10:35 PM 44.6 °F 39.2 °F 41.0 °F 87% 29.48 in 10.0 mi SW 10.4 mph - N/A   Overcast
10:55 PM 42.8 °F 36.6 °F 41.0 °F 93% 29.48 in 10.0 mi SW 11.5 mph - N/A   Mostly Cloudy
11:15 PM 42.8 °F 36.2 °F 37.4 °F 81% 29.48 in 10.0 mi SW 12.7 mph - N/A   Overcast
11:35 PM 41.0 °F 34.3 °F 35.6 °F 81% 29.48 in 10.0 mi WSW 11.5 mph 17.3 mph N/A   Scattered Clouds
11:55 PM 41.0 °F 34.7 °F 35.6 °F 81% 29.48 in 10.0 mi SW 10.4 mph - N/A   Scattered Clouds